Weather History for Budapest Ferihegy, Hungary

Change the Weather History Date:

Saturday, December 8, 2012

  Actual Average Record
Temperature  
Mean Temperature 24 °F -  
Max Temperature 28 °F 35 °F 53 °F (2010)
Min Temperature 21 °F 23 °F 10 °F (2001)
Degree Days  
Heating Degree Days 40    
Moisture  
Dew Point 17 °F    
Average Humidity 70    
Maximum Humidity 86    
Minimum Humidity 59    
Precipitation  
Precipitation 0.00 in - - ()
Sea Level Pressure  
Sea Level Pressure 29.95 in    
Wind  
Wind Speed 12 mph ()    
Max Wind Speed 16 mph    
Max Gust Speed 29 mph    
Visibility 5.7 miles    
Events      
Averages and records for this station are not official NWS values.
T = Trace of Precipitation, MM = Missing Value Source: Averaged Metar Reports

Daily Weather History Graph

Daily Weather History Graph

Search for Another Location

Airport:

Trip Planner

Search our weather history database for the weather conditions in past years. The results will help you decide how hot, cold, wet, or windy it might be!

Date:

Astronomy

Dec. 08, 2012 Rise Set
Actual Time 7:17 AM CET 3:52 PM CET
Civil Twilight 6:42 AM CET 4:27 PM CET
Nautical Twilight 6:03 AM CET 5:06 PM CET
Astronomical Twilight 5:26 AM CET 5:43 PM CET
Moon 1:02 AM CET (12/8) 12:29 PM CET (12/8)
Length of Visible Light 9h 45m
Length of Day
8h 34m
Waning Crescent, 31% of the Moon is Illuminated
Dec 8
Waning Crescent
Dec 13
New
Dec 20
First Quarter
Dec 28
Full
Jan 5
Last Quarter

Hourly Weather History & Observations

Time (CET) Temp. Windchill Dew Point Humidity Pressure Visibility Wind Dir Wind Speed Gust Speed Precip Events Conditions
12:00 AM - - - N/A% 29.92 in - North - - N/A   Clear
12:30 AM - - - N/A% 29.92 in - North - - N/A   Clear
1:00 AM - - - N/A% 29.92 in - North - - N/A   Clear
1:30 AM - - - N/A% 29.92 in - North - - N/A   Clear
2:00 AM - - - N/A% 29.92 in - North - - N/A   Clear
2:30 AM - - - N/A% 29.92 in - North - - N/A   Clear
3:00 AM - - - N/A% 29.92 in - North - - N/A   Clear
3:30 AM - - - N/A% 29.92 in - North - - N/A   Clear
4:00 AM - - - N/A% 29.89 in - North - - N/A   Clear
4:30 AM - - - N/A% 29.92 in - North - - N/A   Clear
5:00 AM - - - N/A% 29.92 in - North - - N/A   Clear
5:30 AM - - - N/A% 29.92 in - North - - N/A   Clear
6:00 AM 21.2 °F 7.8 °F 17.6 °F 86% 29.89 in 6.2 mi NE 15.0 mph - N/A   Mostly Cloudy
6:30 AM 21.2 °F 8.3 °F 15.8 °F 80% 29.89 in 6.2 mi NE 13.8 mph - N/A   Mostly Cloudy
7:00 AM 21.2 °F 9.5 °F 17.6 °F 86% 29.92 in 5.0 mi ENE 11.5 mph - N/A   Unknown
7:30 AM 21.2 °F 9.5 °F 17.6 °F 86% 29.92 in 5.0 mi ENE 11.5 mph - N/A   Unknown
8:00 AM 23.0 °F 11.1 °F 17.6 °F 80% 29.95 in 5.0 mi ENE 12.7 mph - N/A   Unknown
8:30 AM 23.0 °F 10.6 °F 17.6 °F 80% 29.95 in 5.0 mi NE 13.8 mph - N/A   Unknown
9:00 AM 23.0 °F 11.1 °F 17.6 °F 80% 29.95 in 5.0 mi NE 12.7 mph - N/A   Mostly Cloudy
9:30 AM 23.0 °F 9.6 °F 17.6 °F 80% 29.95 in 6.2 mi NE 16.1 mph - N/A   Mostly Cloudy
10:00 AM 24.8 °F 11.9 °F 17.6 °F 74% 29.95 in 6.2 mi NE 16.1 mph 28.8 mph N/A   Overcast
10:30 AM 24.8 °F 12.9 °F 17.6 °F 74% 29.95 in 6.2 mi NE 13.8 mph 26.5 mph N/A   Overcast
11:00 AM 24.8 °F 14.0 °F 15.8 °F 69% 29.95 in 6.2 mi NNE 11.5 mph - N/A   Overcast
11:30 AM 24.8 °F 15.3 °F 15.8 °F 69% 29.95 in 6.2 mi NNE 9.2 mph - N/A   Overcast
12:00 PM 24.8 °F 15.3 °F 15.8 °F 69% 29.95 in - NNE 9.2 mph - N/A   Clear
12:30 PM 26.6 °F 17.5 °F 15.8 °F 64% 29.95 in - NNE 9.2 mph - N/A   Clear
1:00 PM 26.6 °F 17.5 °F 14.0 °F 59% 29.92 in - NNE 9.2 mph - N/A   Clear
1:30 PM 26.6 °F 16.2 °F 17.6 °F 69% 29.92 in - North 11.5 mph - N/A   Clear
2:00 PM 26.6 °F 16.2 °F 17.6 °F 69% 29.92 in - North 11.5 mph - N/A   Clear
2:30 PM 26.6 °F 15.7 °F 17.6 °F 69% 29.92 in - North 12.7 mph - N/A   Clear
3:00 PM 26.6 °F 15.7 °F 17.6 °F 69% 29.92 in - North 12.7 mph - N/A   Clear
3:30 PM 26.6 °F 16.2 °F 17.6 °F 69% 29.95 in - North 11.5 mph - N/A   Clear
4:00 PM 26.6 °F 16.2 °F 17.6 °F 69% 29.95 in - NNW 11.5 mph - N/A   Clear
4:30 PM 26.6 °F 16.2 °F 17.6 °F 69% 29.95 in - NNW 11.5 mph - N/A   Clear
5:00 PM 26.6 °F 16.8 °F 15.8 °F 64% 29.95 in - North 10.4 mph - N/A   Clear
5:30 PM 26.6 °F 16.8 °F 15.8 °F 64% 29.95 in - North 10.4 mph - N/A   Clear
6:00 PM 26.6 °F 15.7 °F 15.8 °F 64% 29.98 in - North 12.7 mph - N/A   Clear
6:30 PM 28.4 °F 18.0 °F 15.8 °F 59% 29.98 in - North 12.7 mph - N/A   Clear
7:00 PM 26.6 °F 15.7 °F 15.8 °F 64% 30.01 in - NNW 12.7 mph - N/A   Clear
7:30 PM 26.6 °F 15.7 °F 17.6 °F 69% 29.98 in - NNW 12.7 mph - N/A   Clear
8:00 PM 26.6 °F 15.7 °F 17.6 °F 69% 30.01 in - NNW 12.7 mph - N/A   Clear
8:30 PM 24.8 °F 12.9 °F 17.6 °F 74% 30.01 in - NNW 13.8 mph - N/A   Clear
9:00 PM 26.6 °F 15.2 °F 15.8 °F 64% 30.01 in - NNW 13.8 mph - N/A   Clear
9:30 PM 26.6 °F 14.3 °F 15.8 °F 64% 30.01 in - NNW 16.1 mph - N/A   Clear
10:00 PM 26.6 °F 14.7 °F 15.8 °F 64% 30.01 in - NNW 15.0 mph - N/A   Clear
10:30 PM 26.6 °F 14.7 °F 15.8 °F 64% 30.01 in - NNW 15.0 mph - N/A   Clear
11:00 PM 26.6 °F 15.2 °F 14.0 °F 59% 30.01 in - NNW 13.8 mph - N/A   Clear
11:30 PM 26.6 °F 16.2 °F 14.0 °F 59% 30.01 in - NNW 11.5 mph - N/A   Clear